This is the latest recevied weather packets stored in our database for station/object K5OLV. If no packets are shown the sender has not sent any weather packets the latest 10 day(s).
| Time | Temp. | Humidity | Pressure | Rain* | Wind** | Luminosity | Snow |
|---|---|---|---|---|---|---|---|
| 1788286871 | 32.22° C | 59% | 1018.7 hPa | 0 mm | - | 666 W/m² | - |
| 1788286565 | 32.22° C | 57% | 1018.8 hPa | 0 mm | - | 465 W/m² | - |
| 1788286264 | 31.11° C | 61% | 1018.8 hPa | 0 mm | - | 703 W/m² | - |
| 1788285964 | 31.67° C | 60% | 1018.9 hPa | 0 mm | - | 684 W/m² | - |
| 1788285658 | 32.22° C | 58% | 1019 hPa | 0 mm | - | 692 W/m² | - |
| 1788285352 | 31.11° C | 62% | 1018.9 hPa | 0 mm | - | 690 W/m² | - |
| 1788285052 | 30° C | 64% | 1019 hPa | 0 mm | - | 677 W/m² | - |
| 1788284748 | 30.56° C | 65% | 1018.9 hPa | 0 mm | - | 700 W/m² | - |
| 1788284444 | 30.56° C | 64% | 1019 hPa | 0 mm | - | 730 W/m² | - |
| 1788284138 | 30.56° C | 65% | 1019 hPa | 0 mm | - | 755 W/m² | - |
| 1788283834 | 30.56° C | 65% | 1019.3 hPa | 0 mm | - | 736 W/m² | - |
| 1788283530 | 30.56° C | 64% | 1019.3 hPa | 0 mm | - | 805 W/m² | - |
| 1788283228 | 30° C | 67% | 1019.2 hPa | 0 mm | - | 725 W/m² | - |
| 1788282927 | 30.56° C | 65% | 1019.3 hPa | 0 mm | - | 694 W/m² | - |
| 1788282626 | 32.78° C | 62% | 1019.7 hPa | 0 mm | - | 694 W/m² | - |
| 1788282325 | 31.67° C | 59% | 1019.6 hPa | 0 mm | - | 690 W/m² | - |
| 1788282021 | 30.56° C | 62% | 1019.3 hPa | 0 mm | - | 676 W/m² | - |
| 1788281722 | 31.11° C | 61% | 1019.4 hPa | 0 mm | - | 668 W/m² | - |
| 1788281411 | 30° C | 67% | 1019.6 hPa | 0 mm | - | 708 W/m² | - |
| 1788281106 | 30° C | 66% | 1019.6 hPa | 0 mm | - | 695 W/m² | - |
| 1788280800 | 30° C | 64% | 1019.9 hPa | 0 mm | - | 711 W/m² | - |
| 1788280496 | 30.56° C | 60% | 1019.8 hPa | 0 mm | - | 661 W/m² | - |
| 1788280194 | 30° C | 62% | 1019.8 hPa | 0 mm | - | 685 W/m² | - |
| 1788279890 | 30° C | 62% | 1019.7 hPa | 0 mm | - | 695 W/m² | - |
| 1788279589 | 29.44° C | 62% | 1019.9 hPa | 0 mm | - | 661 W/m² | - |
* Rain latest hour (hover to see other rain measurements)
** Current wind speed in m/s (hover to see current wind gust speed)